Location: Mactaquac Provincial Park
(45.9573°N, 66.8897°W)
Time: 04:52:24
(UTC-03:00)

CENTAUR R/B - Visible Passes

Search period start: 30 August 2015 00:00
Search period end: 09 September 2015 00:00
Orbit: 873 x 1316 km, 63.5° (Epoch: 21 August)

Date Brightness Start Highest point End Pass type
(mag) Time Alt. Az. Time Alt. Az. Time Alt. Az.
30 Aug 4.3 01:22:49 10° NNW 01:29:26 34° NNE 01:36:36 10° E visible
30 Aug 2.9 03:13:23 10° NW 03:21:05 87° SW 03:26:02 27° SE visible
30 Aug 4.0 05:05:18 10° WNW 05:11:12 23° WSW 05:12:46 21° SW visible
30 Aug 4.4 20:48:24 10° W 20:54:12 32° NNW 21:00:33 10° NNE visible
30 Aug 5.0 22:42:23 10° NW 22:47:17 20° N 22:52:29 10° NE visible
31 Aug 4.6 00:34:35 10° NNW 00:40:37 27° NNE 00:47:10 10° E visible
31 Aug 3.2 02:25:12 10° NW 02:32:47 67° NE 02:35:50 41° ESE visible
31 Aug 3.5 04:16:22 10° NW 04:22:51 36° WSW 04:22:51 36° WSW visible
31 Aug 5.0 21:53:12 10° WNW 21:58:15 21° NNW 22:03:37 10° NE visible
31 Aug 4.8 23:46:12 10° NW 23:51:41 22° NNE 23:57:36 10° ENE visible
01 Sep 3.7 01:37:04 10° NNW 01:44:19 48° NE 01:47:18 35° E visible
01 Sep 3.2 03:27:50 10° NW 03:34:21 52° W 03:34:21 52° W visible
01 Sep 4.8 21:03:56 10° WNW 21:09:18 24° NNW 21:15:03 10° NNE visible
01 Sep 4.9 22:57:36 10° NW 23:02:40 20° N 23:08:06 10° NE visible
02 Sep 4.1 00:48:55 10° NNW 00:55:41 36° NNE 00:59:18 25° ENE visible
02 Sep 3.0 02:39:31 10° NW 02:46:24 72° WNW 02:46:24 72° WNW visible
02 Sep 4.6 04:31:43 10° WNW 04:33:29 15° WNW 04:33:29 15° WNW visible
02 Sep 5.0 22:08:43 10° NW 22:13:37 19° N 22:18:49 10° NE visible
03 Sep 4.5 00:00:43 10° NNW 00:06:54 28° NNE 00:11:36 17° ENE visible
03 Sep 3.1 01:51:19 10° NW 01:58:43 72° NE 01:58:43 72° NE visible
03 Sep 4.3 03:42:37 10° NW 03:45:49 23° WNW 03:45:49 23° WNW visible
03 Sep 4.9 21:19:34 10° WNW 21:24:34 20° N 21:29:52 10° NE visible
03 Sep 4.7 23:12:23 10° NNW 23:18:00 23° NNE 23:24:03 10° ENE visible
04 Sep 3.5 01:03:10 10° NW 01:10:31 52° NE 01:11:14 51° ENE visible
04 Sep 3.9 02:54:00 10° NW 02:58:21 34° WNW 02:58:21 34° WNW visible
04 Sep 4.8 20:30:18 10° WNW 20:35:35 23° NNW 20:41:14 10° NNE visible
04 Sep 4.8 22:23:51 10° NW 22:29:00 20° N 22:34:31 10° NE visible
05 Sep 4.0 00:15:02 10° NNW 00:21:55 39° NE 00:23:53 34° ENE visible
05 Sep 3.5 02:05:39 10° NW 02:11:00 49° NW 02:11:00 49° NW visible
05 Sep 4.9 21:35:02 10° NW 21:39:56 19° N 21:45:11 10° NE visible
05 Sep 4.3 23:26:51 10° NNW 23:33:11 30° NNE 23:36:38 22° ENE visible
06 Sep 3.3 01:17:26 10° NW 01:23:46 64° NNW 01:23:46 64° NNW visible
06 Sep 4.7 03:08:54 10° NW 03:10:54 17° WNW 03:10:54 17° WNW visible
06 Sep 4.8 20:45:57 10° NW 20:50:53 20° N 20:56:09 10° NE visible
06 Sep 4.6 22:38:33 10° NNW 22:44:18 24° NNE 22:49:27 13° ENE visible
07 Sep 3.4 00:29:17 10° NW 00:36:36 56° NE 00:36:36 56° NE visible
07 Sep 4.3 02:20:12 10° NW 02:23:44 28° WNW 02:23:44 28° WNW visible
07 Sep 4.7 21:50:04 10° NW 21:55:19 21° NNE 22:00:58 10° ENE visible
07 Sep 3.8 23:41:09 10° NNW 23:48:09 41° NE 23:49:30 39° ENE visible
08 Sep 3.8 01:31:48 10° NW 01:36:39 42° WNW 01:36:39 42° WNW visible
08 Sep 4.8 21:01:20 10° NW 21:06:16 20° N 21:11:33 10° NE visible
08 Sep 4.2 22:52:59 10° NNW 22:59:27 32° NNE 23:02:27 25° ENE visible
